Simultaneous Nadir Overpasses (SNOs) Predictions

Prediction of SNOs between GOES-15 and NOAA-20 Satellite Orbit:

Table of predicted SNOs for the next 14.0 days since TLE Epoch: 4/29/2023
Index Date Time (GOES-15) GOES-15 Lat,Lon NOAA-20 Lat,Lon Distance(km) Time Diff (sec)
1 04/29/2023 10:53:17 0.14,-140.52 0.38,-141.51 113.99 80
2 04/30/2023 10:31:54 0.15,-140.99 -0.75,-137.01 453.98 80
3 05/01/2023 22:56:34 -0.13,-141.68 -0.28,-142.34 75.44 80
4 05/02/2023 22:35:11 -0.15,-142.15 0.84,-137.84 492.31 80
5 05/04/2023 10:59:42 0.13,-142.90 0.16,-143.14 27.47 80
6 05/06/2023 23:00:18 -0.12,-144.04 -0.11,-143.96 8.48 80
7 05/09/2023 11:03:26 0.11,-145.22 0.03,-144.75 53.25 80
8 05/10/2023 23:28:05 -0.08,-145.88 -1.04,-150.09 479.75 80
9 05/11/2023 23:06:42 -0.11,-146.33 0.04,-145.57 86.14 80
